Погода в Едее

Россия / Республика Саха (Якутия)     61°06′18″N   126°22′25″E
темп.,
°C
ветер,
м/с
пор.,
м/с
влажн.,
%
обл.,
%
осадки,
мм/ч
давл.,
гПа
погр.,
м
3 марта, ср
ср300:00−33вюв119985 0.0 102419
03:00−35вюв119977 0.0 102319
06:00−36в119939 0.0 102319
09:00−33всв119621 0.0 102233
12:00−27ссв119037 0.0 1020324
15:00−25ссв228968 0.0 1019490
18:00−30с1296100 0.0 102019
21:00−34зсз1110091 0.0 102119
4 марта, чт
чт400:00−35з229985 0.0 102219
03:00−37зюз239992 0.0 102371
06:00−35з3997100 0.1 1023381
09:00−32з4995100 0.1 1023574
12:00−31з5993100 0.2 1023732
15:00−29зсз51092100 0.3 1024911
18:00−29зсз51092100 0.1 10251023
21:00−30зсз41094100 0.3 10271027
5 марта, пт
пт500:00−30зсз4993100 0.1 1029959
03:00−31зсз41093100 0.1 1030735
06:00−32з41194100 0.0 1031589
09:00−32з51093100 0.1 1032568
12:00−29з5993100 0.0 1032595
15:00−26з5990100 0.1 1031695
18:00−27з3109089 0.0 1032383
21:00−30з389444 0.0 1033177
6 марта, сб
сб600:00−33зюз23980 0.0 103231
03:00−34зюз239927 0.0 103254
06:00−34зюз2310050 0.0 103128
09:00−31зюз239834 0.0 1030113
12:00−24з248827 0.0 1027344
15:00−21з238313 0.0 1025420
18:00−26вюв00920 0.0 102420
21:00−28ю11890 0.0 102619
7 марта, вс
вс700:00−29ю11930 0.0 102519
03:00−30юв11920 0.0 102519
06:00−31ю11910 0.0 102519
09:00−26ююв11880 0.0 102437
12:00−18ююз01810 0.0 1022299
15:00−15всв11780 0.0 1021443
18:00−20всв12930 0.0 102020
21:00−23вюв11900 0.0 102120